Location: Newark
(42.8481°N, 0.4872°E)
Time: 22:43:37
(UTC+00:00)

Transit 2A Rocket - Pass Details

Date: 28 October 2020
Orbit: 588 x 914 km, 66.7° (Epoch: 29 November)

Event Time Altitude Azimuth Distance (km) Brightness Sun altitude
Rises 19:28:58 0° 317° (NW) 3,231 9.0 -28.7°
Reaches altitude 10° 19:31:54 10° 303° (WNW) 2,237 8.2 -29.2°
Maximum altitude 19:35:45 22° 253° (WSW) 1,490 7.0 -29.9°
Enters shadow 19:38:59 12° 206° (SSW) 1,964 7.3 -30.5°
Drops below altitude 10° 19:39:21 10° 203° (SSW) 2,070 - -30.6°
Sets 19:41:57 0° 188° (S) 2,926 - -31.0°
